{"data":{"norad_id":48678,"epoch":"2026-05-25T04:10:47.675424Z","epoch_age_seconds":66889,"freshness":"FRESH","line1":"1 48678U 21044AS  26145.17416291 -.00003267  00000+0 -93484-4 0  9994","line2":"2 48678  53.1599 108.0633 0001701 103.6565 256.4626 15.31718584275685","mean_motion":15.31718584,"eccentricity":0.0001701,"inclination_deg":53.1599,"raan_deg":108.0633,"arg_perigee_deg":103.6565,"mean_anomaly_deg":256.4626,"bstar":-9.3484e-5,"rev_number":27568,"period_min":94.012047320045,"perigee_km":469.519613295,"apogee_km":471.84958240258,"semimajor_km":6848.8215978488,"source":"CELESTRAK","updated_at":"2026-05-25T13:38:16.760257Z"}}